Wind_Speed
16 18 21 23 23 26 28 26 26 27 25 24 23 23 21 21 18 13 12 13 16 17 17 17 16 16 17 18 21 23 27 29 28 29 28 28 25 24 23 22 21 21 21
22 25 26 25 24 26 26 24 25 27 26 23 22 22 20 20 17 15 12 12 12 13 12 13 16 17 18 17 18 17 21 27 29 31 30 30 26 25 21 24 24 24 24
22 25 26 24 24 25 24 22 21 22 23 22 21 21 20 20 20 18 16 16 16 15 13 14 16 16 16 21 24 23 22 25 31 35 33 29 27 26 26 26 25 24 25
21 19 20 23 25 28 26 23 21 20 21 23 21 21 21 21 23 22 20 19 19 19 19 19 20 20 19 21 24 26 29 28 31 37 40 33 27 26 28 29 26 24 24
21 20 20 24 26 25 25 21 24 23 21 22 22 21 22 23 23 24 25 25 23 22 22 22 23 23 23 23 24 25 27 28 30 35 40 40 33 32 31 30 27 25 25
21 21 23 27 23 27 25 21 22 19 15 20 22 18 20 23 26 26 27 27 26 24 24 23 23 24 24 23 21 22 23 27 33 38 44 42 36 35 33 30 27 25 28
19 23 24 25 26 28 28 25 22 19 17 16 14 14 14 18 24 24 24 25 25 25 25 26 26 26 25 25 23 22 22 22 25 34 43 46 43 36 35 32 30 29 30
19 21 22 22 22 22 24 25 23 20 17 16 15 15 15 16 18 21 19 20 22 23 24 26 26 26 28 29 26 24 22 24 24 28 37 39 39 38 40 38 31 28 29
18 22 25 25 23 21 19 20 20 19 16 15 15 16 17 17 16 18 20 20 20 22 23 24 26 27 28 30 29 27 25 23 23 25 30 32 34 36 34 33 32 30 29
17 21 23 23 21 20 20 19 19 18 17 16 17 19 21 21 21 23 23 23 24 25 24 24 25 27 28 28 28 27 25 24 20 19 22 21 20 25 28 31 34 33 32
17 19 20 21 22 23 22 20 18 17 17 17 18 21 24 26 27 28 29 29 30 30 30 28 27 26 26 27 27 25 24 24 22 21 21 22 25 24 22 23 27 29 29
15 16 17 20 22 22 19 18 17 16 17 18 20 23 25 28 32 35 36 37 39 39 39 35 31 29 28 26 23 23 23 25 26 25 26 27 27 28 27 29 31 31 31
17 17 18 20 20 18 17 16 15 17 19 20 23 24 25 28 31 33 35 36 36 36 37 37 35 31 29 26 24 24 24 24 23 25 26 26 27 29 29 30 31 33 34
18 18 18 18 18 18 16 16 17 18 19 20 22 22 23 27 28 30 32 31 29 27 25 29 33 30 26 25 23 22 22 22 21 21 23 24 24 24 24 25 26 28 29
16 16 17 17 17 17 16 15 15 16 16 17 18 17 19 19 21 23 21 19 23 24 24 24 26 26 24 24 23 22 21 20 20 18 17 18 19 21 23 25 26 28 30
15 15 14 15 16 16 14 13 14 16 15 15 15 15 14 16 14 14 16 12 4 14 18 18 19 21 22 22 22 20 18 17 15 15 15 17 18 20 23 26 27 29 31
16 16 16 17 16 14 13 14 16 17 16 15 14 12 12 11 11 18 16 9 7 4 8 11 14 15 18 21 22 19 16 14 15 17 20 21 23 24 26 27 29 31 32
18 18 17 16 16 15 15 15 16 17 16 15 12 12 12 12 13 15 17 16 10 5 4 8 12 15 16 15 14 12 13 15 16 17 18 19 20 22 25 27 29 30 32
17 18 18 18 17 17 18 17 17 16 16 15 15 15 15 15 16 17 19 17 13 7 5 12 15 15 14 11 9 7 9 11 13 14 16 18 21 24 25 27 28 28 30
17 17 18 18 18 19 20 19 19 18 18 17 17 16 15 15 16 18 21 19 13 6 4 4 4 3 4 4 5 6 9 12 15 17 20 22 23 25 26 27 28 29 30
18 18 18 18 18 19 20 21 21 21 20 20 19 18 17 17 18 19 22 22 13 6 10 10 9 8 5 2 1 4 7 10 13 15 17 19 22 24 27 29 31 32 32
18 18 17 17 17 17 18 19 21 22 23 23 24 23 22 21 22 23 24 26 24 19 15 13 12 11 10 9 7 6 7 9 11 14 17 21 23 25 26 26 27 27 28
18 17 16 16 15 15 16 17 18 19 20 21 22 23 22 22 23 24 26 28 29 27 24 20 17 15 13 12 11 11 11 11 12 15 20 24 25 26 26 26 26 27 28
16 16 14 14 13 14 15 17 18 19 19 19 20 21 21 22 22 23 23 24 25 26 25 23 20 18 16 14 14 15 15 14 17 21 23 24 24 24 24 24 24 25 25
13 13 13 13 13 13 14 15 16 17 17 17 18 19 19 20 20 20 21 21 21 20 20 18 17 16 16 16 17 18 19 20 22 24 26 27 26 26 25 24 23 23 22
11 11 12 12 13 14 15 15 16 16 15 15 15 15 17 17 18 18 18 19 19 20 19 18 17 16 16 16 17 18 19 20 23 25 27 28 27 25 24 23 22 21 22
Wind_Direction
278 273 277 282 283 281 281 280 277 277 282 285 284 280 275 271 265 262 251 244 241 246 254 252 248 244 243 242 245 245 238 232 233 237 241 238 233 233 233 233 233 233 232
276 276 275 276 283 284 286 285 279 275 273 270 273 275 271 266 262 255 250 247 249 250 251 245 242 235 246 242 234 245 244 235 231 233 237 238 231 230 230 236 232 234 236
274 279 279 279 290 289 283 281 282 274 261 254 260 269 266 263 263 259 254 251 253 257 254 248 244 239 247 240 238 250 254 246 237 235 229 230 229 231 232 236 233 234 236
280 283 284 276 281 278 273 277 278 265 253 250 255 263 266 264 262 262 258 257 257 258 258 256 255 254 256 254 248 254 252 254 244 233 226 222 227 231 237 246 240 239 241
294 285 288 280 289 289 283 284 282 273 254 251 252 258 265 266 264 261 261 261 261 259 255 252 254 257 260 259 256 256 252 250 246 234 225 221 229 236 240 242 242 242 246
302 305 321 317 307 315 326 328 317 314 279 261 257 256 263 269 269 265 262 262 260 258 254 251 251 253 257 258 255 251 251 246 245 232 224 223 224 232 231 236 240 241 247
312 312 319 321 321 324 328 327 339 336 316 304 287 278 280 278 264 262 261 260 260 258 258 256 253 253 255 254 253 249 245 242 246 235 225 217 223 228 232 236 239 244 249
309 310 310 311 314 320 324 332 332 325 312 301 290 287 288 284 269 256 259 258 262 263 262 262 260 259 257 255 253 249 244 240 247 244 229 224 228 235 232 228 235 243 251
312 315 315 316 317 319 320 320 319 318 312 301 293 287 282 278 268 261 251 257 258 262 263 262 262 260 256 255 253 250 246 242 243 248 236 233 236 232 226 229 236 245 246
312 316 318 319 317 317 318 321 320 317 311 302 296 290 283 278 272 266 260 257 258 260 262 261 258 256 255 255 254 251 248 247 244 236 242 247 237 225 230 238 240 241 242
311 317 324 329 328 326 324 324 322 319 312 305 298 293 288 283 277 272 266 261 261 263 264 262 260 259 257 255 257 255 250 248 244 235 231 233 244 243 242 241 240 242 247
306 312 321 328 328 328 327 326 326 328 324 316 311 305 297 289 283 280 275 269 264 261 260 258 256 257 256 254 254 255 250 247 244 242 241 237 240 244 246 245 245 248 251
307 305 312 319 323 324 324 322 324 326 324 318 315 313 307 302 297 291 284 275 265 259 254 252 251 251 253 250 246 249 248 243 243 246 246 245 246 248 248 249 250 251 253
316 313 311 314 320 325 323 320 322 323 323 322 321 321 319 317 311 303 291 277 263 253 247 244 243 244 247 244 236 238 244 243 245 249 247 244 244 245 246 246 249 253 256
325 322 321 324 330 331 327 325 325 325 325 327 329 332 332 333 333 330 318 283 253 241 239 243 236 234 238 235 228 230 239 241 245 244 237 236 241 246 248 249 251 253 255
346 340 339 340 338 337 337 335 335 334 334 340 340 338 336 338 343 357 10 10 272 220 222 224 219 226 228 222 220 220 224 226 233 233 237 244 251 257 260 260 259 259 261
1 4 4 2 0 358 355 350 349 351 355 354 353 355 352 347 348 353 16 33 74 159 199 210 212 211 212 211 208 211 222 232 240 249 254 258 263 267 269 267 266 266 265
15 18 18 16 14 11 9 9 7 11 14 14 13 13 15 16 18 17 23 42 73 92 167 191 181 173 178 187 196 212 234 247 256 264 266 267 271 274 275 274 272 271 271
21 27 30 29 28 26 24 22 18 15 17 20 20 16 15 20 26 27 24 18 14 20 107 138 145 150 169 193 221 247 262 265 266 268 270 274 278 281 283 283 283 282 280
26 30 35 33 32 31 30 31 34 36 35 33 27 23 30 36 37 32 22 10 1 14 46 72 94 116 155 204 249 275 278 272 269 270 277 284 288 290 291 291 289 287 286
31 31 32 32 31 32 33 36 42 46 46 44 41 39 40 38 36 30 23 20 24 78 113 111 109 108 109 119 258 281 286 291 294 297 299 298 296 295 294 293 290 288 285
36 33 31 33 34 36 39 39 42 45 46 46 46 46 47 46 45 41 36 38 54 75 94 100 98 92 83 69 48 20 348 328 321 316 309 304 301 301 301 301 300 298 295
34 31 31 35 37 39 41 42 43 43 44 46 48 50 51 52 51 49 48 51 58 67 76 82 82 79 75 66 51 34 15 359 344 328 318 313 310 306 304 303 304 303 302
30 28 29 32 34 39 41 42 42 42 43 43 44 45 46 48 50 51 51 52 57 63 67 69 70 70 66 57 45 34 23 11 359 349 341 333 326 322 318 313 309 307 307
29 27 28 31 33 37 40 41 40 38 38 37 38 42 44 45 45 46 48 50 53 57 60 62 62 59 53 44 35 28 20 10 2 359 354 347 338 333 331 327 322 318 315
28 31 37 42 41 39 36 36 37 35 33 32 33 36 41 42 41 41 42 43 46 47 49 49 49 46 40 34 28 22 16 10 5 2 2 359 352 344 341 338 332 326 322
Height
5808 5806 5806 5804 5801 5798 5795 5791 5789 5789 5787 5787 5785 5785 5785 5785 5784 5784 5783 5782 5783 5784 5786 5788 5791 5792 5794 5796 5799 5803 5806 5808 5811 5814 5817 5820 5821 5822 5823 5825 5827 5830 5833
5802 5800 5799 5796 5790 5787 5786 5786 5784 5781 5779 5779 5779 5778 5778 5779 5779 5780 5780 5780 5781 5782 5782 5784 5786 5788 5791 5792 5795 5797 5799 5802 5804 5808 5811 5813 5815 5817 5819 5821 5823 5825 5827
5794 5792 5790 5786 5783 5782 5780 5778 5774 5772 5772 5773 5773 5773 5772 5772 5773 5773 5775 5776 5778 5778 5780 5781 5782 5784 5786 5787 5789 5790 5792 5794 5797 5800 5803 5805 5808 5811 5813 5815 5817 5819 5822
5787 5785 5782 5779 5778 5776 5774 5771 5768 5766 5766 5767 5767 5767 5767 5766 5767 5768 5769 5771 5772 5773 5774 5776 5777 5780 5781 5782 5782 5783 5784 5786 5789 5792 5795 5798 5801 5803 5806 5809 5811 5813 5815
5783 5782 5780 5779 5775 5771 5770 5767 5765 5762 5761 5762 5762 5762 5761 5760 5760 5762 5763 5765 5767 5768 5768 5769 5771 5773 5775 5776 5776 5776 5776 5777 5779 5783 5786 5791 5794 5797 5800 5802 5805 5807 5809
5779 5776 5771 5772 5768 5765 5765 5764 5761 5759 5758 5757 5756 5756 5756 5754 5754 5755 5757 5758 5760 5761 5762 5763 5765 5766 5767 5768 5768 5769 5769 5769 5770 5774 5778 5783 5786 5789 5792 5795 5799 5802 5802
5774 5771 5768 5767 5765 5761 5758 5757 5753 5752 5753 5751 5750 5749 5749 5748 5747 5748 5750 5751 5752 5754 5755 5756 5757 5759 5760 5761 5762 5763 5764 5763 5764 5766 5769 5774 5778 5781 5784 5788 5791 5793 5795
5771 5769 5767 5766 5764 5759 5755 5749 5746 5747 5747 5745 5744 5743 5743 5742 5741 5741 5743 5743 5745 5747 5748 5749 5750 5751 5752 5753 5755 5756 5758 5759 5761 5762 5765 5767 5769 5773 5777 5780 5783 5785 5786
5769 5766 5763 5760 5757 5755 5752 5750 5746 5743 5742 5741 5738 5737 5737 5736 5736 5735 5737 5737 5738 5740 5741 5742 5743 5744 5745 5746 5747 5749 5750 5752 5755 5756 5758 5761 5762 5765 5769 5773 5774 5776 5779
5765 5762 5758 5755 5752 5749 5747 5744 5741 5739 5737 5736 5733 5731 5731 5730 5730 5729 5729 5731 5731 5732 5733 5734 5734 5735 5737 5738 5739 5742 5744 5745 5749 5751 5752 5754 5756 5757 5760 5763 5766 5768 5771
5761 5757 5754 5750 5746 5743 5740 5737 5735 5733 5731 5730 5728 5726 5725 5723 5722 5722 5722 5722 5722 5724 5724 5725 5726 5728 5729 5731 5732 5734 5737 5739 5742 5745 5747 5748 5750 5752 5753 5756 5758 5760 5762
5758 5755 5752 5748 5744 5740 5736 5733 5731 5729 5727 5725 5723 5720 5718 5716 5714 5712 5711 5710 5711 5712 5713 5715 5717 5719 5721 5724 5727 5728 5730 5732 5735 5737 5740 5741 5743 5745 5747 5749 5751 5752 5754
5756 5753 5750 5746 5741 5737 5734 5732 5729 5726 5723 5721 5718 5715 5711 5707 5704 5699 5696 5694 5695 5697 5700 5703 5707 5710 5713 5717 5719 5721 5723 5726 5728 5730 5732 5734 5735 5737 5739 5741 5743 5744 5745
5753 5749 5746 5743 5738 5734 5731 5728 5725 5722 5719 5716 5713 5709 5705 5700 5694 5688 5682 5679 5679 5684 5688 5691 5696 5701 5706 5710 5712 5715 5717 5719 5722 5725 5726 5727 5729 5731 5733 5733 5734 5734 5734
5750 5746 5741 5738 5734 5731 5728 5725 5722 5719 5716 5713 5710 5706 5701 5696 5690 5681 5671 5666 5668 5674 5680 5683 5688 5694 5698 5702 5706 5710 5712 5714 5717 5719 5720 5722 5724 5725 5726 5726 5726 5726 5727
5748 5743 5739 5735 5732 5728 5725 5722 5719 5716 5713 5710 5707 5703 5699 5694 5689 5681 5672 5666 5664 5669 5674 5678 5683 5688 5692 5696 5701 5705 5708 5710 5713 5715 5717 5718 5719 5719 5721 5721 5720 5720 5719
5746 5741 5737 5734 5730 5726 5722 5720 5717 5714 5711 5708 5704 5701 5697 5692 5688 5683 5677 5672 5669 5671 5674 5677 5681 5685 5689 5692 5696 5701 5705 5708 5710 5711 5712 5713 5712 5712 5713 5712 5711 5711 5709
5745 5741 5737 5734 5730 5726 5723 5720 5717 5714 5711 5708 5704 5701 5698 5694 5689 5685 5681 5678 5676 5676 5677 5678 5681 5684 5687 5691 5696 5700 5702 5704 5705 5706 5707 5707 5706 5705 5705 5704 5702 5701 5700
5746 5743 5739 5736 5732 5728 5725 5721 5718 5715 5712 5709 5706 5702 5699 5696 5692 5688 5685 5682 5680 5678 5678 5680 5683 5686 5689 5692 5695 5698 5700 5701 5702 5702 5702 5701 5700 5699 5697 5696 5693 5691 5689
5748 5745 5742 5738 5735 5731 5727 5723 5720 5717 5714 5711 5708 5705 5702 5699 5696 5693 5689 5685 5681 5679 5680 5681 5683 5686 5689 5692 5694 5696 5697 5697 5698 5698 5697 5696 5694 5692 5689 5686 5684 5681 5678
5750 5747 5744 5741 5738 5734 5731 5727 5724 5721 5718 5715 5712 5709 5706 5703 5700 5697 5693 5686 5679 5678 5681 5684 5686 5688 5690 5692 5694 5695 5695 5695 5694 5693 5691 5689 5687 5684 5681 5677 5674 5671 5668
5752 5750 5747 5744 5740 5737 5735 5732 5729 5726 5723 5720 5717 5713 5710 5708 5705 5701 5697 5692 5685 5683 5684 5687 5689 5691 5693 5695 5695 5695 5695 5693 5692 5690 5687 5684 5680 5677 5673 5669 5665 5662 5659
5755 5752 5750 5747 5744 5741 5738 5735 5733 5731 5728 5726 5723 5719 5716 5713 5710 5707 5703 5699 5695 5693 5693 5693 5694 5696 5697 5697 5697 5696 5695 5692 5690 5688 5684 5679 5675 5670 5665 5661 5658 5654 5650
5757 5754 5752 5750 5748 5745 5742 5739 5737 5734 5732 5730 5727 5724 5721 5718 5715 5712 5710 5707 5704 5703 5701 5701 5701 5701 5701 5700 5699 5697 5695 5692 5688 5684 5679 5674 5668 5663 5658 5654 5651 5647 5644
5759 5757 5755 5752 5750 5748 5746 5743 5741 5738 5736 5733 5730 5728 5726 5723 5720 5717 5716 5714 5712 5710 5708 5707 5706 5705 5703 5702 5700 5697 5695 5691 5687 5682 5676 5670 5664 5658 5654 5649 5646 5642 5639
5761 5759 5757 5755 5753 5751 5749 5747 5744 5742 5739 5737 5734 5732 5730 5728 5725 5722 5720 5719 5717 5714 5712 5710 5709 5707 5705 5703 5701 5699 5695 5691 5687 5681 5675 5668 5661 5656 5651 5647 5643 5639 5636